User: anonymous   Login
Location: Columbia
(38.9520°N, 92.3340°W)
Time: 23:36:57
(UTC-05:00)
Language:

SJ-11-01 - Orbit

View from above orbital plane
View from above orbital plane
View from above satellite
View from above satellite

Ground track
Ground track

The orbit data is extracted from the following two-line orbital elements,

1 36088U 09061A   18111.73160554  .00000072  00000-0  24458-4 0  9990
2 36088  98.0926 158.0608 0012562  28.5973 331.5903 14.60014824449662
Epoch (UTC): 21 April 2018 17:33:30
Eccentricity: 0.0012562
inclination: 98.0926°
perigee height: 684 km
apogee height: 702 km
right ascension of ascending node: 158.0608°
argument of perigee: 28.5973°
revolutions per day: 14.60014824
mean anomaly at epoch: 331.5903°
orbit number at epoch: 44966

The dashed part of the orbit path shows where the satellite is in the earth's shadow,  

DLR